When you browse on this site, cookies collect data to enhance your experience and personalize the content and advertising you see.
Visit our Privacy Policy to learn more. By continuing to use the site, you agree to this use of cookies and data.
  • En España
  • Lista de países
  • Para 7 días
  • Temperatura del agua
  • Mapa Satelital
  • El tiempo en el mapa
  • Informadores
  • user-avatar
    Iniciar sesión

    Tiempo cada hora Shushkovo

    Hoy, 18 Junio, Martes

    Tiempo Temperatura Precipitaciones Viento Presión Humedad
    00:00 +17°C° 0 mm 2 mps 740 mmHg 88%
    01:00 +16°C° 0 mm 2 mps 740 mmHg 90%
    02:00 +16°C° 0 mm 2 mps 740 mmHg 90%
    03:00 +17°C° 0.4 mm 2 mps 740 mmHg 90%
    04:00 +17°C° 0.4 mm 2 mps 740 mmHg 91%
    05:00 +17°C° 0.4 mm 2 mps 740 mmHg 91%
    06:00 +19°C° 1.1 mm 2 mps 740 mmHg 89%
    07:00 +20°C° 1.1 mm 2 mps 740 mmHg 87%
    08:00 +21°C° 1.1 mm 2 mps 740 mmHg 85%
    09:00 +23°C° 0.9 mm 2 mps 740 mmHg 79%
    10:00 +24°C° 0.9 mm 2 mps 740 mmHg 73%
    11:00 +26°C° 0.9 mm 2 mps 740 mmHg 67%
    12:00 +26°C° 0.2 mm 3 mps 740 mmHg 68%
    13:00 +26°C° 0.2 mm 3 mps 740 mmHg 68%
    14:00 +26°C° 0.2 mm 4 mps 740 mmHg 69%
    15:00 +25°C° 0.4 mm 4 mps 740 mmHg 72%
    16:00 +25°C° 0.4 mm 3 mps 740 mmHg 74%
    17:00 +24°C° 0.4 mm 3 mps 739 mmHg 77%
    18:00 +22°C° 0.1 mm 3 mps 740 mmHg 81%
    19:00 +20°C° 0.1 mm 3 mps 740 mmHg 84%
    20:00 +19°C° 0.1 mm 3 mps 740 mmHg 87%
    21:00 +18°C° 0 mm 3 mps 740 mmHg 88%
    22:00 +17°C° 0 mm 2 mps 740 mmHg 89%
    23:00 +16°C° 0 mm 2 mps 741 mmHg 90%

    Mañana, 19 Junio, Miércoles

    Tiempo Temperatura Precipitaciones Viento Presión Humedad
    00:00 +16°C° 0 mm 2 mps 741 mmHg 91%
    01:00 +15°C° 0 mm 2 mps 741 mmHg 91%
    02:00 +15°C° 0 mm 2 mps 741 mmHg 92%
    03:00 +15°C° 0 mm 2 mps 741 mmHg 90%
    04:00 +15°C° 0 mm 2 mps 741 mmHg 89%
    05:00 +14°C° 0 mm 3 mps 742 mmHg 87%
    06:00 +17°C° 0 mm 3 mps 742 mmHg 82%
    07:00 +19°C° 0 mm 3 mps 742 mmHg 77%
    08:00 +20°C° 0 mm 3 mps 742 mmHg 73%
    09:00 +21°C° 0 mm 3 mps 742 mmHg 67%
    10:00 +24°C° 0 mm 3 mps 742 mmHg 61%
    11:00 +25°C° 0 mm 3 mps 743 mmHg 55%
    12:00 +25°C° 0 mm 3 mps 743 mmHg 54%
    13:00 +26°C° 0 mm 3 mps 742 mmHg 53%
    14:00 +26°C° 0 mm 2 mps 742 mmHg 53%
    15:00 +26°C° 0 mm 2 mps 742 mmHg 56%
    16:00 +26°C° 0 mm 2 mps 742 mmHg 59%
    17:00 +26°C° 0 mm 1 mps 742 mmHg 63%
    18:00 +24°C° 0 mm 1 mps 742 mmHg 67%
    19:00 +22°C° 0 mm 1 mps 742 mmHg 72%
    20:00 +20°C° 0 mm 1 mps 742 mmHg 76%
    21:00 +19°C° 0 mm 1 mps 742 mmHg 77%
    22:00 +18°C° 0 mm 1 mps 743 mmHg 78%
    23:00 +16°C° 0 mm 1 mps 743 mmHg 79%

    Pasado mañana, 20 Junio, Jueves

    Tiempo Temperatura Precipitaciones Viento Presión Humedad
    00:00 +16°C° 0 mm 1 mps 743 mmHg 79%
    01:00 +16°C° 0 mm 1 mps 743 mmHg 79%
    02:00 +15°C° 0 mm 1 mps 743 mmHg 80%
    03:00 +16°C° 0 mm 1 mps 743 mmHg 80%
    04:00 +18°C° 0 mm 1 mps 743 mmHg 81%
    05:00 +19°C° 0 mm 1 mps 744 mmHg 81%
    06:00 +20°C° 0 mm 1 mps 744 mmHg 76%
    07:00 +22°C° 0 mm 1 mps 744 mmHg 72%
    08:00 +24°C° 0 mm 1 mps 744 mmHg 68%
    09:00 +23°C° 0 mm 0 mps 744 mmHg 63%
    10:00 +24°C° 0 mm 0 mps 744 mmHg 58%
    11:00 +25°C° 0 mm 0 mps 744 mmHg 53%
    12:00 +25°C° 0 mm 0 mps 744 mmHg 51%
    13:00 +28°C° 0 mm 1 mps 743 mmHg 50%
    14:00 +28°C° 0 mm 1 mps 743 mmHg 48%
    15:00 +28°C° 0 mm 1 mps 743 mmHg 52%
    16:00 +27°C° 0 mm 1 mps 743 mmHg 56%
    17:00 +27°C° 0 mm 1 mps 743 mmHg 60%
    18:00 +25°C° 0 mm 1 mps 743 mmHg 63%
    19:00 +23°C° 0 mm 1 mps 743 mmHg 66%
    20:00 +21°C° 0 mm 1 mps 743 mmHg 69%
    21:00 +20°C° 0 mm 1 mps 743 mmHg 72%
    22:00 +20°C° 0 mm 1 mps 743 mmHg 76%
    23:00 +19°C° 0 mm 1 mps 743 mmHg 79%

    21 Junio, Viernes

    Tiempo Temperatura Precipitaciones Viento Presión Humedad
    00:00 +19°C° 0 mm 1 mps 743 mmHg 81%
    01:00 +18°C° 0 mm 1 mps 744 mmHg 83%
    02:00 +18°C° 0 mm 1 mps 744 mmHg 84%
    03:00 +19°C° 0 mm 1 mps 744 mmHg 84%
    04:00 +19°C° 0 mm 1 mps 744 mmHg 84%
    05:00 +20°C° 0 mm 1 mps 744 mmHg 83%
    06:00 +21°C° 0 mm 1 mps 744 mmHg 79%
    07:00 +23°C° 0 mm 2 mps 744 mmHg 74%
    08:00 +25°C° 0 mm 2 mps 744 mmHg 70%
    09:00 +25°C° 0 mm 2 mps 744 mmHg 65%
    10:00 +26°C° 0 mm 2 mps 744 mmHg 61%
    11:00 +27°C° 0 mm 2 mps 744 mmHg 56%
    12:00 +27°C° 0 mm 2 mps 744 mmHg 56%
    13:00 +27°C° 0 mm 2 mps 744 mmHg 55%
    14:00 +27°C° 0 mm 2 mps 744 mmHg 54%
    15:00 +27°C° 0 mm 2 mps 743 mmHg 58%
    16:00 +27°C° 0 mm 2 mps 743 mmHg 63%
    17:00 +27°C° 0 mm 2 mps 743 mmHg 67%
    18:00 +25°C° 0 mm 2 mps 743 mmHg 70%
    19:00 +23°C° 0 mm 2 mps 743 mmHg 74%
    20:00 +21°C° 0 mm 2 mps 743 mmHg 78%
    21:00 +20°C° 0 mm 2 mps 743 mmHg 80%
    22:00 +19°C° 0 mm 2 mps 743 mmHg 81%
    23:00 +19°C° 0 mm 2 mps 743 mmHg 83%

    22 Junio, Sábado

    Tiempo Temperatura Precipitaciones Viento Presión Humedad
    00:00 +18°C° 0 mm 2 mps 743 mmHg 84%
    01:00 +18°C° 0 mm 2 mps 743 mmHg 86%
    02:00 +17°C° 0 mm 2 mps 743 mmHg 88%
    03:00 +18°C° 0 mm 2 mps 743 mmHg 87%
    04:00 +18°C° 0 mm 2 mps 743 mmHg 86%
    05:00 +19°C° 0 mm 2 mps 744 mmHg 85%
    06:00 +20°C° 0 mm 3 mps 744 mmHg 82%
    07:00 +22°C° 0 mm 3 mps 744 mmHg 79%
    08:00 +25°C° 0 mm 3 mps 744 mmHg 75%
    09:00 +26°C° 0 mm 4 mps 744 mmHg 71%
    10:00 +27°C° 0 mm 4 mps 744 mmHg 66%
    11:00 +28°C° 0 mm 4 mps 743 mmHg 62%
    12:00 +28°C° 0 mm 4 mps 743 mmHg 62%
    13:00 +28°C° 0 mm 5 mps 743 mmHg 61%
    14:00 +28°C° 0 mm 5 mps 743 mmHg 61%
    15:00 +28°C° 0 mm 4 mps 743 mmHg 65%
    16:00 +28°C° 0 mm 4 mps 743 mmHg 69%
    17:00 +27°C° 0 mm 4 mps 742 mmHg 72%
    18:00 +26°C° 0 mm 3 mps 742 mmHg 77%
    19:00 +24°C° 0 mm 3 mps 743 mmHg 81%
    20:00 +22°C° 0 mm 3 mps 743 mmHg 86%
    21:00 +21°C° 0 mm 3 mps 743 mmHg 87%
    22:00 +21°C° 0 mm 3 mps 743 mmHg 89%
    23:00 +20°C° 0 mm 3 mps 743 mmHg 91%

    23 Junio, Domingo

    Tiempo Temperatura Precipitaciones Viento Presión Humedad
    00:00 +20°C° 0 mm 3 mps 743 mmHg 92%
    01:00 +19°C° 0 mm 3 mps 743 mmHg 92%
    02:00 +19°C° 0 mm 3 mps 743 mmHg 93%
    03:00 +19°C° 0 mm 2 mps 743 mmHg 92%
    04:00 +20°C° 0 mm 2 mps 743 mmHg 91%
    05:00 +20°C° 0 mm 2 mps 743 mmHg 90%
    06:00 +23°C° 0.1 mm 2 mps 743 mmHg 84%
    07:00 +25°C° 0.1 mm 3 mps 743 mmHg 79%
    08:00 +27°C° 0.1 mm 3 mps 743 mmHg 73%
    09:00 +27°C° 0.1 mm 3 mps 743 mmHg 68%
    10:00 +28°C° 0.1 mm 3 mps 743 mmHg 62%
    11:00 +29°C° 0.1 mm 4 mps 743 mmHg 57%
    12:00 +30°C° 0 mm 4 mps 743 mmHg 57%
    13:00 +30°C° 0 mm 4 mps 743 mmHg 56%
    14:00 +30°C° 0 mm 4 mps 743 mmHg 56%
    15:00 +30°C° 0 mm 4 mps 743 mmHg 60%
    16:00 +29°C° 0 mm 3 mps 743 mmHg 65%
    17:00 +29°C° 0 mm 3 mps 743 mmHg 69%
    18:00 +27°C° 0 mm 2 mps 743 mmHg 73%
    19:00 +25°C° 0 mm 2 mps 743 mmHg 77%
    20:00 +24°C° 0 mm 2 mps 743 mmHg 80%
    21:00 +23°C° 0 mm 2 mps 743 mmHg 82%
    22:00 +21°C° 0 mm 2 mps 743 mmHg 83%
    23:00 +21°C° 0 mm 2 mps 743 mmHg 84%
    Mostrar más